ETD616 OEJN-OMAA

Flight info

Callsign ETD616
Flight time 2h 12m
Altitude 35000
Route EGREP T532 KODIS Y214 RAPMA/N0440F290 Y214 RIBOT M550 GOLGU M318 ATUDO
Aircraft A321/M-SDE3FGHIRWY/LB1

Departure

Time 2025-10-27 05:17
Airport King Abdulaziz International Airport (OEJN)

Arrival

Time 2025-10-27 07:30
Airport Zayed International Airport (OMAA)
Time Latitude Longitude Altitude Speed Heading
2025-10-27 04:55 21.66721 39.17027 52 ft 0 kts 70°
2025-10-27 05:05 21.66720 39.17022 52 ft 2 kts 70°
2025-10-27 05:05 21.66710 39.16992 52 ft 2 kts 70°
2025-10-27 05:05 21.66705 39.16977 52 ft 2 kts 70°
2025-10-27 05:06 21.66695 39.16946 52 ft 2 kts 90°
2025-10-27 05:07 21.66715 39.16914 52 ft 1 kts 164°
2025-10-27 05:07 21.66719 39.16913 52 ft 0 kts 160°
2025-10-27 05:09 21.66713 39.16915 52 ft 2 kts 160°
2025-10-27 05:09 21.66624 39.16951 52 ft 8 kts 159°
2025-10-27 05:10 21.66493 39.17003 52 ft 10 kts 159°
2025-10-27 05:11 21.66279 39.16989 52 ft 9 kts 210°
2025-10-27 05:11 21.66189 39.16917 52 ft 8 kts 221°
2025-10-27 05:12 21.66135 39.16862 52 ft 4 kts 225°
2025-10-27 05:12 21.66131 39.16788 52 ft 6 kts 317°
2025-10-27 05:13 21.66210 39.16733 52 ft 7 kts 281°
2025-10-27 05:13 21.66197 39.16675 52 ft 8 kts 250°
2025-10-27 05:13 21.66188 39.16650 52 ft 0 kts 250°
2025-10-27 05:14 21.66177 39.16616 52 ft 4 kts 250°
2025-10-27 05:15 21.66141 39.16511 52 ft 8 kts 250°
2025-10-27 05:15 21.66159 39.16475 52 ft 1 kts 339°
2025-10-27 05:16 21.66610 39.16298 52 ft 94 kts 339°
2025-10-27 05:16 21.68519 39.15541 401 ft 170 kts 340°
2025-10-27 05:16 21.69632 39.15102 996 ft 173 kts 340°
2025-10-27 05:17 21.71985 39.14175 1619 ft 192 kts 341°
2025-10-27 05:18 21.76202 39.12524 2360 ft 240 kts 341°
2025-10-27 05:18 21.77831 39.11884 2681 ft 256 kts 342°
2025-10-27 05:19 21.83050 39.09826 4428 ft 272 kts 342°
2025-10-27 05:19 21.86670 39.08396 5668 ft 280 kts 342°
2025-10-27 05:20 21.90348 39.06890 6893 ft 288 kts 338°
2025-10-27 05:20 21.92184 39.06025 7483 ft 292 kts 337°
2025-10-27 05:21 21.97709 39.06711 9176 ft 290 kts 55°
2025-10-27 05:21 21.98761 39.08557 9755 ft 292 kts 62°
2025-10-27 05:21 22.00954 39.12378 10613 ft 311 kts 59°
2025-10-27 05:22 22.03467 39.16429 11123 ft 340 kts 57°
2025-10-27 05:23 22.07673 39.23010 12370 ft 363 kts 57°
2025-10-27 05:23 22.10541 39.27464 13499 ft 366 kts 57°
2025-10-27 05:24 22.13488 39.32002 14436 ft 374 kts 56°
2025-10-27 05:24 22.14982 39.34309 14866 ft 378 kts 56°
2025-10-27 05:24 22.18025 39.39024 15695 ft 387 kts 56°
2025-10-27 05:25 22.21127 39.43850 16515 ft 394 kts 56°
2025-10-27 05:25 22.24243 39.48702 17343 ft 398 kts 55°
2025-10-27 05:26 22.27428 39.53663 18127 ft 405 kts 55°
2025-10-27 05:27 22.32270 39.61219 19257 ft 414 kts 55°
2025-10-27 05:27 22.35559 39.66365 19973 ft 421 kts 56°
2025-10-27 05:28 22.38910 39.71635 20684 ft 427 kts 56°
2025-10-27 05:28 22.40585 39.74264 21034 ft 430 kts 56°
2025-10-27 05:29 22.45817 39.82241 22050 ft 439 kts 51°
2025-10-27 05:29 22.47853 39.84717 22388 ft 442 kts 45°
2025-10-27 05:29 22.52405 39.89238 23045 ft 447 kts 40°
2025-10-27 05:30 22.57140 39.93719 23658 ft 453 kts 40°
2025-10-27 05:31 22.64301 40.00535 24539 ft 462 kts 40°
2025-10-27 05:31 22.66696 40.02824 24848 ft 464 kts 40°
2025-10-27 05:33 22.83916 40.19325 26807 ft 482 kts 39°
2025-10-27 05:35 23.04349 40.38985 28867 ft 499 kts 39°
2025-10-27 05:37 23.25185 40.59583 30588 ft 516 kts 47°
2025-10-27 05:39 23.37065 40.88364 31707 ft 532 kts 69°
2025-10-27 05:41 23.47550 41.18757 32707 ft 539 kts 69°
2025-10-27 05:43 23.57606 41.48069 34565 ft 502 kts 69°
2025-10-27 05:45 23.67354 41.76750 35248 ft 505 kts 69°
2025-10-27 05:47 23.75935 42.03529 35243 ft 502 kts 69°
2025-10-27 05:49 23.85265 42.30752 35262 ft 503 kts 69°
2025-10-27 05:51 23.94694 42.58578 35280 ft 502 kts 69°
2025-10-27 05:53 24.03114 42.86547 35249 ft 504 kts 86°
2025-10-27 05:55 23.97402 43.15926 35269 ft 497 kts 110°
2025-10-27 05:56 23.90477 43.41257 35282 ft 497 kts 110°
2025-10-27 05:59 23.81560 43.73728 35290 ft 496 kts 111°
2025-10-27 06:00 23.76506 43.99620 35275 ft 503 kts 97°
2025-10-27 06:03 23.74003 44.33698 35281 ft 503 kts 97°
2025-10-27 06:04 23.72074 44.58758 35282 ft 502 kts 97°
2025-10-27 06:07 23.69401 44.92688 35266 ft 501 kts 98°
2025-10-27 06:09 23.67184 45.20055 35227 ft 501 kts 97°
2025-10-27 06:11 23.64749 45.49313 35239 ft 500 kts 97°
2025-10-27 06:13 23.62191 45.79456 35204 ft 499 kts 98°
2025-10-27 06:15 23.59580 46.09506 35209 ft 499 kts 98°
2025-10-27 06:17 23.56919 46.39523 35223 ft 498 kts 97°
2025-10-27 06:19 23.54201 46.69417 35235 ft 497 kts 98°
2025-10-27 06:20 23.51772 46.95671 35191 ft 497 kts 98°
2025-10-27 06:23 23.48587 47.29354 35170 ft 497 kts 98°
2025-10-27 06:24 23.46060 47.55553 35184 ft 497 kts 98°
2025-10-27 06:27 23.42750 47.89165 35136 ft 497 kts 98°
2025-10-27 06:28 23.40129 48.15281 35134 ft 497 kts 98°
2025-10-27 06:31 23.37601 48.49054 35139 ft 498 kts 93°
2025-10-27 06:32 23.36528 48.75393 35129 ft 498 kts 94°
2025-10-27 06:35 23.35065 49.09214 35100 ft 498 kts 94°
2025-10-27 06:36 23.33875 49.35566 35057 ft 498 kts 94°
2025-10-27 06:38 23.32468 49.65578 35068 ft 497 kts 94°
2025-10-27 06:40 23.31008 49.95563 35059 ft 497 kts 94°
2025-10-27 06:42 23.29489 50.25530 35054 ft 496 kts 94°
2025-10-27 06:44 23.27914 50.55447 35039 ft 497 kts 94°
2025-10-27 06:47 23.26084 50.89008 35030 ft 496 kts 95°
2025-10-27 06:49 23.24389 51.18884 35046 ft 496 kts 94°
2025-10-27 06:51 23.22594 51.48727 35018 ft 495 kts 96°
2025-10-27 06:53 23.20034 51.78442 34994 ft 495 kts 96°
2025-10-27 06:55 23.17462 52.08108 34987 ft 493 kts 96°
2025-10-27 06:57 23.15336 52.37832 35004 ft 494 kts 87°
2025-10-27 06:59 23.24939 52.65222 35013 ft 490 kts 58°
2025-10-27 07:01 23.38244 52.91102 35011 ft 489 kts 58°
2025-10-27 07:03 23.51866 53.16797 34387 ft 488 kts 57°
2025-10-27 07:04 23.63662 53.38983 30561 ft 490 kts 57°
2025-10-27 07:07 23.79012 53.67896 26591 ft 479 kts 57°
2025-10-27 07:08 23.85554 53.80250 24569 ft 458 kts 57°
2025-10-27 07:08 23.87129 53.83217 24109 ft 452 kts 57°
2025-10-27 07:08 23.90247 53.89098 23109 ft 443 kts 57°
2025-10-27 07:09 23.94768 53.97629 21701 ft 427 kts 57°
2025-10-27 07:10 23.97710 54.03191 20774 ft 417 kts 57°
2025-10-27 07:10 24.00574 54.08633 19846 ft 409 kts 58°
2025-10-27 07:11 24.03336 54.13987 18943 ft 400 kts 58°
2025-10-27 07:11 24.06044 54.19237 18006 ft 392 kts 58°
2025-10-27 07:11 24.07382 54.21829 17534 ft 389 kts 59°
2025-10-27 07:12 24.10018 54.26940 16566 ft 383 kts 59°
2025-10-27 07:12 24.12620 54.31948 15625 ft 377 kts 59°
2025-10-27 07:13 24.15191 54.36919 14711 ft 371 kts 59°
2025-10-27 07:13 24.17689 54.41772 13936 ft 361 kts 59°
2025-10-27 07:14 24.21224 54.48658 13406 ft 330 kts 59°
2025-10-27 07:15 24.23442 54.52880 13063 ft 311 kts 54°
2025-10-27 07:15 24.26459 54.56074 12912 ft 301 kts 34°
2025-10-27 07:15 24.28204 54.57303 12670 ft 297 kts 29°
2025-10-27 07:16 24.31903 54.59319 12193 ft 295 kts 24°
2025-10-27 07:16 24.35597 54.61204 11721 ft 292 kts 24°
2025-10-27 07:17 24.39283 54.63100 11032 ft 290 kts 24°
2025-10-27 07:18 24.44742 54.65929 10018 ft 287 kts 25°
2025-10-27 07:18 24.48323 54.67793 9350 ft 284 kts 22°
2025-10-27 07:19 24.52107 54.67573 8603 ft 281 kts 328°
2025-10-27 07:19 24.54665 54.64404 8028 ft 275 kts 309°
2025-10-27 07:19 24.55803 54.62753 7878 ft 267 kts 309°
2025-10-27 07:20 24.58005 54.59609 7570 ft 251 kts 309°
2025-10-27 07:20 24.60082 54.56663 7278 ft 237 kts 309°
2025-10-27 07:21 24.62037 54.53866 6939 ft 225 kts 309°
2025-10-27 07:21 24.63908 54.51166 6252 ft 220 kts 309°
2025-10-27 07:22 24.66481 54.47397 5727 ft 188 kts 306°
2025-10-27 07:23 24.66382 54.44642 4981 ft 204 kts 232°
2025-10-27 07:23 24.65156 54.43841 4603 ft 209 kts 193°
2025-10-27 07:23 24.62346 54.44364 4079 ft 205 kts 162°
2025-10-27 07:24 24.59619 54.45299 3702 ft 203 kts 162°
2025-10-27 07:24 24.57000 54.46418 3361 ft 201 kts 145°
2025-10-27 07:25 24.55034 54.48553 3047 ft 197 kts 127°
2025-10-27 07:26 24.52529 54.52150 2525 ft 196 kts 126°
2025-10-27 07:26 24.50094 54.55570 1783 ft 179 kts 126°
2025-10-27 07:27 24.49345 54.56623 1594 ft 171 kts 126°
2025-10-27 07:27 24.47893 54.58663 1148 ft 164 kts 126°
2025-10-27 07:28 24.46522 54.60589 744 ft 158 kts 126°
2025-10-27 07:28 24.45174 54.62492 347 ft 157 kts 126°
2025-10-27 07:29 24.43845 54.64362 90 ft 147 kts 127°
2025-10-27 07:29 24.43013 54.65527 90 ft 43 kts 128°
2025-10-27 07:29 24.42873 54.65732 90 ft 22 kts 120°
2025-10-27 07:30 24.42806 54.66063 90 ft 11 kts 98°
2025-10-27 07:31 24.42828 54.66107 90 ft 4 kts 309°
2025-10-27 07:31 24.42876 54.66036 90 ft 6 kts 307°
2025-10-27 07:32 24.42945 54.65938 90 ft 8 kts 308°
2025-10-27 07:32 24.43012 54.65849 90 ft 8 kts 302°
2025-10-27 07:33 24.43087 54.65736 90 ft 9 kts 308°
2025-10-27 07:33 24.43132 54.65674 90 ft 10 kts 308°
2025-10-27 07:33 24.43231 54.65535 90 ft 12 kts 308°
2025-10-27 07:34 24.43382 54.65321 90 ft 11 kts 308°
2025-10-27 07:35 24.43479 54.65184 90 ft 11 kts 308°
2025-10-27 07:35 24.43570 54.65056 90 ft 10 kts 308°
2025-10-27 07:36 24.43656 54.64934 90 ft 9 kts 307°
2025-10-27 07:36 24.43739 54.64817 90 ft 9 kts 308°
2025-10-27 07:37 24.43820 54.64704 89 ft 9 kts 308°
2025-10-27 07:37 24.43874 54.64682 89 ft 8 kts 19°
2025-10-27 07:37 24.43974 54.64642 89 ft 8 kts 309°
2025-10-27 07:38 24.44083 54.64489 89 ft 8 kts 308°
2025-10-27 07:39 24.44154 54.64390 89 ft 8 kts 311°
2025-10-27 07:39 24.44205 54.64375 89 ft 7 kts 21°
2025-10-27 07:40 24.44334 54.64366 89 ft 7 kts 309°
2025-10-27 07:40 24.44399 54.64283 89 ft 7 kts 316°
2025-10-27 07:40 24.44441 54.64255 89 ft 7 kts 335°
2025-10-27 07:41 24.44493 54.64258 89 ft 2 kts 69°
2025-10-27 07:41 24.44505 54.64289 89 ft 2 kts 68°
2025-10-27 07:42 24.44517 54.64321 89 ft 0 kts 67°
2025-10-27 07:43 24.44520 54.64329 89 ft 0 kts 68°